Meteo pe oră la Czyzew

Astăzi, 14 Aprilie, Miercuri

Timp Temperatura Precipitaţii Vânt Presiune Umiditate
00:00 +3°C° 0 mm 4 m/s 759 mmHg 64%
01:00 +3°C° 0 mm 4 m/s 758 mmHg 66%
02:00 +3°C° 0 mm 3 m/s 758 mmHg 66%
03:00 +2°C° 0 mm 3 m/s 758 mmHg 67%
04:00 +2°C° 0 mm 3 m/s 758 mmHg 68%
05:00 +2°C° 0 mm 3 m/s 758 mmHg 68%
06:00 +2°C° 0 mm 3 m/s 758 mmHg 68%
07:00 +1°C° 0 mm 4 m/s 759 mmHg 68%
08:00 +3°C° 0 mm 4 m/s 759 mmHg 66%
09:00 +4°C° 0 mm 4 m/s 758 mmHg 64%
10:00 +4°C° 0 mm 4 m/s 758 mmHg 62%
11:00 +5°C° 0.1 mm 4 m/s 758 mmHg 58%
12:00 +5°C° 0.1 mm 4 m/s 758 mmHg 54%
13:00 +6°C° 0.1 mm 5 m/s 758 mmHg 51%
14:00 +6°C° 0 mm 5 m/s 758 mmHg 52%
15:00 +6°C° 0 mm 5 m/s 758 mmHg 53%
16:00 +6°C° 0 mm 5 m/s 758 mmHg 54%
17:00 +5°C° 0 mm 5 m/s 758 mmHg 59%
18:00 +3°C° 0 mm 5 m/s 758 mmHg 65%
19:00 +4°C° 0 mm 4 m/s 758 mmHg 70%
20:00 +3°C° 0 mm 4 m/s 758 mmHg 71%
21:00 +3°C° 0 mm 4 m/s 758 mmHg 72%
22:00 +1°C° 0 mm 4 m/s 758 mmHg 73%
23:00 +1°C° 0 mm 4 m/s 758 mmHg 75%

Mâine, 15 Aprilie, Joi

Timp Temperatura Precipitaţii Vânt Presiune Umiditate
00:00 +1°C° 0 mm 4 m/s 758 mmHg 76%
01:00 0°C° 0 mm 5 m/s 758 mmHg 77%
02:00 0°C° 0.2 mm 5 m/s 758 mmHg 83%
03:00 0°C° 0.2 mm 5 m/s 758 mmHg 89%
04:00 -2°C° 0.2 mm 6 m/s 757 mmHg 95%
05:00 -2°C° 0.4 mm 6 m/s 757 mmHg 95%
06:00 -1°C° 0.4 mm 6 m/s 757 mmHg 96%
07:00 -1°C° 0.4 mm 6 m/s 757 mmHg 96%
08:00 -1°C° 0.7 mm 6 m/s 757 mmHg 97%
09:00 -1°C° 0.7 mm 6 m/s 757 mmHg 97%
10:00 -1°C° 0.7 mm 6 m/s 757 mmHg 97%
11:00 -1°C° 0.8 mm 6 m/s 757 mmHg 97%
12:00 -1°C° 0.8 mm 6 m/s 756 mmHg 97%
13:00 0°C° 0.8 mm 5 m/s 756 mmHg 97%
14:00 0°C° 0.7 mm 5 m/s 756 mmHg 98%
15:00 0°C° 0.7 mm 5 m/s 756 mmHg 98%
16:00 0°C° 0.7 mm 4 m/s 756 mmHg 98%
17:00 0°C° 0.4 mm 4 m/s 756 mmHg 98%
18:00 0°C° 0.4 mm 4 m/s 756 mmHg 98%
19:00 0°C° 0.4 mm 4 m/s 756 mmHg 98%
20:00 0°C° 0.3 mm 4 m/s 756 mmHg 98%
21:00 +1°C° 0.3 mm 3 m/s 756 mmHg 98%
22:00 +2°C° 0.3 mm 3 m/s 755 mmHg 98%
23:00 +2°C° 0.2 mm 3 m/s 755 mmHg 98%

Poimâine, 16 Aprilie, Vineri

Timp Temperatura Precipitaţii Vânt Presiune Umiditate
00:00 +2°C° 0.2 mm 3 m/s 755 mmHg 97%
01:00 +3°C° 0.2 mm 4 m/s 755 mmHg 97%
02:00 +3°C° 0.3 mm 3 m/s 755 mmHg 96%
03:00 +3°C° 0.3 mm 3 m/s 755 mmHg 95%
04:00 +3°C° 0.3 mm 3 m/s 755 mmHg 95%
05:00 +3°C° 0.1 mm 3 m/s 755 mmHg 93%
06:00 +3°C° 0.1 mm 4 m/s 755 mmHg 91%
07:00 +3°C° 0.1 mm 4 m/s 756 mmHg 89%
08:00 +3°C° 0.1 mm 4 m/s 756 mmHg 90%
09:00 +4°C° 0.1 mm 4 m/s 756 mmHg 90%
10:00 +3°C° 0.1 mm 5 m/s 756 mmHg 91%
11:00 +2°C° 0 mm 5 m/s 756 mmHg 93%
12:00 +3°C° 0 mm 4 m/s 756 mmHg 95%
13:00 +3°C° 0 mm 4 m/s 756 mmHg 96%
14:00 +3°C° 0 mm 4 m/s 756 mmHg 97%
15:00 +3°C° 0 mm 4 m/s 756 mmHg 97%
16:00 +3°C° 0 mm 3 m/s 756 mmHg 97%
17:00 +3°C° 0.2 mm 3 m/s 757 mmHg 97%
18:00 +3°C° 0.2 mm 3 m/s 757 mmHg 97%
19:00 +3°C° 0.2 mm 3 m/s 757 mmHg 97%
20:00 +3°C° 0 mm 3 m/s 757 mmHg 97%
21:00 +3°C° 0 mm 3 m/s 757 mmHg 97%
22:00 +4°C° 0 mm 2 m/s 757 mmHg 97%
23:00 +4°C° 0 mm 2 m/s 757 mmHg 97%

17 Aprilie, Sâmbătă

Timp Temperatura Precipitaţii Vânt Presiune Umiditate
00:00 +3°C° 0 mm 3 m/s 757 mmHg 97%
01:00 +3°C° 0 mm 3 m/s 756 mmHg 97%
02:00 +3°C° 0 mm 3 m/s 756 mmHg 97%
03:00 +3°C° 0 mm 3 m/s 756 mmHg 97%
04:00 +4°C° 0 mm 3 m/s 756 mmHg 97%
05:00 +4°C° 0 mm 3 m/s 756 mmHg 96%
06:00 +4°C° 0 mm 3 m/s 756 mmHg 96%
07:00 +4°C° 0 mm 3 m/s 756 mmHg 95%
08:00 +5°C° 0.1 mm 3 m/s 756 mmHg 93%
09:00 +7°C° 0.1 mm 3 m/s 756 mmHg 91%
10:00 +8°C° 0.1 mm 3 m/s 756 mmHg 89%
11:00 +8°C° 0.1 mm 3 m/s 756 mmHg 89%
12:00 +8°C° 0.1 mm 3 m/s 756 mmHg 90%
13:00 +8°C° 0.1 mm 3 m/s 756 mmHg 90%
14:00 +9°C° 0 mm 3 m/s 756 mmHg 87%
15:00 +9°C° 0 mm 3 m/s 756 mmHg 84%
16:00 +10°C° 0 mm 3 m/s 756 mmHg 81%
17:00 +9°C° 0.2 mm 3 m/s 756 mmHg 84%
18:00 +9°C° 0.2 mm 3 m/s 756 mmHg 88%
19:00 +8°C° 0.2 mm 3 m/s 756 mmHg 92%
20:00 +7°C° 0.1 mm 3 m/s 756 mmHg 93%
21:00 +7°C° 0.1 mm 3 m/s 756 mmHg 93%
22:00 +5°C° 0.1 mm 3 m/s 756 mmHg 94%
23:00 +5°C° 0 mm 3 m/s 756 mmHg 95%

18 Aprilie, Duminică

Timp Temperatura Precipitaţii Vânt Presiune Umiditate
00:00 +5°C° 0 mm 2 m/s 756 mmHg 95%
01:00 +5°C° 0 mm 2 m/s 756 mmHg 96%
02:00 +5°C° 0 mm 2 m/s 756 mmHg 96%
03:00 +4°C° 0 mm 3 m/s 756 mmHg 96%
04:00 +4°C° 0 mm 3 m/s 756 mmHg 96%
05:00 +4°C° 0 mm 3 m/s 756 mmHg 93%
06:00 +5°C° 0 mm 3 m/s 756 mmHg 91%
07:00 +5°C° 0 mm 4 m/s 756 mmHg 88%
08:00 +6°C° 0 mm 4 m/s 756 mmHg 82%
09:00 +7°C° 0 mm 4 m/s 757 mmHg 77%
10:00 +8°C° 0 mm 4 m/s 757 mmHg 71%
11:00 +10°C° 0 mm 4 m/s 757 mmHg 68%
12:00 +11°C° 0 mm 3 m/s 757 mmHg 65%
13:00 +11°C° 0 mm 3 m/s 756 mmHg 61%
14:00 +11°C° 0 mm 3 m/s 756 mmHg 64%
15:00 +11°C° 0 mm 3 m/s 756 mmHg 67%
16:00 +11°C° 0 mm 3 m/s 756 mmHg 69%
17:00 +10°C° 0 mm 3 m/s 756 mmHg 72%
18:00 +10°C° 0 mm 2 m/s 756 mmHg 74%
19:00 +9°C° 0 mm 2 m/s 757 mmHg 76%
20:00 +9°C° 0 mm 2 m/s 757 mmHg 76%
21:00 +9°C° 0 mm 2 m/s 757 mmHg 76%
22:00 +9°C° 0 mm 2 m/s 757 mmHg 76%
23:00 +9°C° 0 mm 2 m/s 756 mmHg 78%

19 Aprilie, Luni

Timp Temperatura Precipitaţii Vânt Presiune Umiditate
00:00 +8°C° 0 mm 2 m/s 756 mmHg 81%
01:00 +8°C° 0 mm 2 m/s 756 mmHg 83%
02:00 +8°C° 0.1 mm 2 m/s 756 mmHg 86%
03:00 +8°C° 0.1 mm 2 m/s 756 mmHg 88%
04:00 +8°C° 0.1 mm 2 m/s 756 mmHg 91%
05:00 +8°C° 0 mm 3 m/s 756 mmHg 90%
06:00 +9°C° 0 mm 3 m/s 756 mmHg 90%
07:00 +9°C° 0 mm 3 m/s 756 mmHg 89%
08:00 +10°C° 0.1 mm 4 m/s 756 mmHg 85%
09:00 +10°C° 0.1 mm 5 m/s 756 mmHg 80%
10:00 +12°C° 0.1 mm 5 m/s 756 mmHg 76%
11:00 +12°C° 0.1 mm 5 m/s 755 mmHg 72%
12:00 +13°C° 0.1 mm 5 m/s 755 mmHg 68%
13:00 +13°C° 0.1 mm 5 m/s 755 mmHg 64%
14:00 +12°C° 0.2 mm 5 m/s 755 mmHg 69%
15:00 +12°C° 0.2 mm 4 m/s 755 mmHg 73%
16:00 +11°C° 0.2 mm 4 m/s 755 mmHg 78%
17:00 +11°C° 0.1 mm 4 m/s 755 mmHg 81%
18:00 +10°C° 0.1 mm 4 m/s 755 mmHg 84%
19:00 +10°C° 0.1 mm 4 m/s 754 mmHg 87%
20:00 +8°C° 0.1 mm 4 m/s 754 mmHg 87%
21:00 +8°C° 0.1 mm 4 m/s 754 mmHg 88%
22:00 +8°C° 0.1 mm 4 m/s 754 mmHg 88%
23:00 +8°C° 0 mm 4 m/s 754 mmHg 89%
Arată mai mult

Formular de consimțământ

Meteoprog și furnizorii noștri de servicii pot stoca și accesa date personale, precum cookies, identificatori de dispozitiv sau alte tehnologii similare pe dispozitivul dumneavoastră și procesa astfel de date pentru a personaliza conținutul și reclamele, dar și pentru a oferi caracteristici de social media și pentru a analiza traficul.

  • Stocarea și/sau accesarea informațiilor pe dispozitivul dumneavoastră

    Cookies, identificatori de dispozitiv sau alte informații pot fi stocate sau accesate pe dispozitiv în scopurile indicate mai sus.

  • Reclame și conținut personalizat, evaluarea reclamelor și a conținutului, informații despre audiențe și dezvoltarea produselor

    Reclamele și conținutul pot fi personalizate pe baza unui profil. Pot fi adăugate date suplimentare pentru a personaliza mai bine reclamele și conținutul. Performanța reclamelor și conținutului poate fi măsurată. Pot fi obținute informații despre utilizatorii care au văzut reclamele și conținutul. Aceste date pot fi utilizate pentru a dezvolta sau îmbunătăți experiența utilizatorilor, sistemele și software-ul.

Dând clic pe ‘Sunt de acord’, permiteți utilizarea cookie-urilor menționate, a identificatorilor de dispozitiv, balizelor web sau altor tehnologii similare. Setările pot fi modificate din browser-ul dispozitivului dumneavoastră.

În anumite scopuri, interesele legitime pot prima asupra consimțământului. Puteți citi mai multe informații în acest sens în Politica privind Confidențialitatea Datelor și Cookie.